Regional Weather Roundup
Issued by NWS Northern Indiana

Home | Current Version | Previous Version | Graphics & Text | Print | Product List | Glossary On
Versions: 1 2 3 4 5 6 7 8 9 10 11 12 13 14 15 16 17 18 19 20 21 22 23 24 25 26 27 28 29 30 31 32 33 34 35 36 37 38 39 40 41 42 43 44 45 46 47 48 49 50
000
ASUS43 KIWX 250210
RWRIWX

KIWX WEATHER ROUNDUP
NATIONAL WEATHER SERVICE NORTHERN INDIANA
1000 PM EDT MON JUL 24 2017

NOTE: "FAIR" INDICATES FEW OR NO CLOUDS BELOW 12,000 FEET WITH NO
SIGNIFICANT WEATHER AND/OR OBSTRUCTIONS TO VISIBILITY.

* THESE STATIONS ARE NOT UNDER NWS QUALITY CONTROL. THEY ALSO MAY NOT
  REPORT WEATHER SUCH AS PRECIPITATION OR FOG.

INZ001>027-250300-
NORTHERN INDIANA

CITY           SKY/WX    TMP DP  RH WIND       PRES   REMARKS
GARY*          PTCLDY    68  61  77 NE8       30.09R
VALPARAISO     CLEAR     66  62  87 N3        30.08R
MICHIGAN CITY* CLEAR     64  63  94 CALM      30.09R
LAPORTE*       CLEAR     65  62  89 N7        30.09R
KNOX*          CLEAR     63  61  94 N6        30.07R
SOUTH BEND     PTCLDY    65  62  90 N9        30.08R
GOSHEN         CLEAR     65  57  75 CALM      30.08R
MONTICELLO*    CLEAR     68  62  81 N3        30.05R
LOGANSPORT*    CLEAR     68  59  73 CALM      30.08R
ROCHESTER*     CLEAR     68  61  77 NE3       30.08R
WARSAW*        CLEAR     63  59  88 CALM      30.09R
AUBURN*        CLEAR     63  59  88 CALM      30.09R
FORT WAYNE     PTCLDY    64  57  78 NE6       30.08R
HUNTINGTON*    CLEAR     65  60  85 CALM      30.08R
PERU/GRISSOM   CLEAR     66  62  86 NE7       30.06R
MARION*        CLEAR     66  61  82 NE5       30.08R

$$
INZ028>050-250300-
CENTRAL INDIANA

CITY           SKY/WX    TMP DP  RH WIND       PRES   REMARKS
LAFAYETTE      CLEAR     68  62  81 N5        30.05R
KOKOMO*        CLEAR     66  62  87 NE5       30.08R
MUNCIE*        CLEAR     68  60  75 E6        30.07R
INDIANAPOLIS   PTCLDY    73  62  68 NE10      30.04R

$$
MIZ043>046-050>051-056>058-064>065-071>073-077>080-250300-
SOUTHWEST LOWER MICHIGAN

CITY           SKY/WX    TMP DP  RH WIND       PRES   REMARKS
BATTLE CREEK   CLEAR     66  57  72 CALM      30.10R
BENTON HARBOR  CLEAR     67  60  78 CALM      30.08S
COLDWATER*     CLEAR     63  60  88 CALM      30.09R
HILLSDALE*     MOCLDY    59  54  82 CALM      30.09R
HOLLAND        CLEAR     66  58  75 CALM      30.09R
GRAND RAPIDS   PTCLDY    69  58  67 CALM      30.08R
KALAMAZOO      CLEAR     67  54  63 CALM      30.09R
STURGIS*       CLEAR     62  60  93 CALM      30.09R
THREE RIVERS*  FAIR      64  58  80 CALM      30.09R

$$
OHZ001>008-015>018-024>025-250300-
NORTHWEST OHIO

CITY           SKY/WX    TMP DP  RH WIND       PRES   REMARKS
WAUSEON*       FAIR      61  57  88 N5        30.08R
DEFIANCE       CLEAR    N/A N/A N/A CALM      30.08R
FINDLAY        CLEAR     68  56  65 N3        30.06R
TOLEDO EXPRESS CLEAR     65  56  72 N7        30.07R
TOLEDO METCALF CLEAR     68  55  63 N6        30.08R
LIMA           CLEAR     61  60  97 CALM      30.08R

$$
AND FOR LAKE MICHIGAN COASTAL AND OPEN LAKE BUOY OBSERVATIONS

STATION/POSITION TEMP    WIND        PRES    VSBY  WAVE
                 AIR SEA DIR/SP/G                  HT/PER
                 (F)     (DEG/KT/KT) (MB)    (MI)  (FT/S)
CALUMET HARBOR    68      10/  7/  9 1018.3R
MICHIGAN CITY     69      20/ 11/ 12   N/A
BURNS HARBOR      70      30/ 10/ 12 1019.0R
SAINT JOSEPH      69      30/  6/ 11 1019.6
SOUTH LAKE BUOY   67 70   20/ 12/ 14 1018.6R         4/ 6
4 MI NW BRIDGMAN  70 73   60/ 12/ 16 1018.6          4/ 6
MICHIGAN CITY     70 74   40/ 10/ 14   N/A           4/ 7

$$
&&




USA.gov is the U.S. government's official web portal to all federal, state and local government web resources and services.